User: anonymous
Location: Vancouver
(49.2500°N, 123.1330°W)
Time: 14:31:27
(UTC-07:00)
Language:

H-2A R/B - Orbit

View from above orbital plane
View from above orbital plane
View from above satellite
View from above satellite

Ground track
Ground track

The orbit data is extracted from the following two-line orbital elements,

1 27601U 02056E   14113.86762623  .00000341  00000-0  14031-3 0   697
2 27601 098.4828 197.7787 0073771 099.8896 011.0206 14.31349645593228
Epoch (UTC): 23 April 2014 20:49:22
Eccentricity: 0.0073771
inclination: 98.4828°
perigee height: 734 km
apogee height: 840 km
right ascension of ascending node: 197.7787°
argument of perigee: 99.8896°
revolutions per day: 14.31349645
mean anomaly at epoch: 11.0206°
orbit number at epoch: 59322

The dashed part of the orbit path shows where the satellite is in the earth's shadow,  

DLR